{"data":{"norad_id":62247,"epoch":"2026-09-22T20:13:34.408704Z","epoch_age_seconds":107775,"freshness":"FRESH","line1":"1 62247U 24232L   26265.84275936  .00000109  00000+0  15000-3 0  9997","line2":"2 62247  89.0167  12.7856 0016378  98.9847 261.3159 13.51030305137574","mean_motion":13.51030305,"eccentricity":0.0016378,"inclination_deg":89.0167,"raan_deg":12.7856,"arg_perigee_deg":98.9847,"mean_anomaly_deg":261.3159,"bstar":0.00015,"rev_number":13757,"period_min":106.58532193325,"perigee_km":1056.2741731395,"apogee_km":1080.6662797705,"semimajor_km":7446.607226455,"source":"CELESTRAK","updated_at":"2026-09-23T09:00:21.335546Z"}}